FW7322 Weather Reports


Display with metric or nautical units.
time (UTC)temp
F
wind
direction
speed
MPH
gust
MPH
rain 1hr
in
rain 24hr
in
rain mn
in
humidity
%
barometer
mb
20240624140043 70 79 1.0 7.0 0.00 0.01 0.00 71 1029.4
20240624135538 70 119 1.0 7.0 0.00 0.01 0.00 69 1029.5
20240624135043 71 91 0.0 9.0 0.00 0.01 0.00 71 1029.4
20240624134539 70 79 1.0 12.0 0.00 0.01 0.00 72 1029.4
20240624134035 70 124 3.0 12.0 0.00 0.01 0.00 69 1029.5
20240624133535 70 82 2.0 10.0 0.00 0.01 0.00 73 1029.4
20240624133044 69 94 1.0 5.0 0.00 0.01 0.00 74 1029.4
20240624132534 68 113 0.0 4.0 0.00 0.01 0.00 74 1029.2
20240624132031 68 102 0.0 5.0 0.00 0.01 0.00 76 1029.3
20240624131533 68 73 0.0 5.0 0.00 0.01 0.00 75 1029.2
20240624131029 68 85 0.0 5.0 0.00 0.01 0.00 77 1029.1
20240624130529 68 101 0.0 5.0 0.00 0.01 0.00 76 1029.0
20240624130033 68 112 0.0 5.0 0.00 0.01 0.00 77 1028.9
20240624125528 67 98 1.0 4.0 0.00 0.01 0.00 76 1028.8
20240624125026 67 88 0.0 4.0 0.00 0.01 0.00 76 1028.9
20240624124526 67 74 1.0 6.0 0.00 0.01 0.00 76 1028.9
20240624124025 67 79 2.0 6.0 0.00 0.01 0.00 76 1028.8
20240624123523 68 79 0.0 5.0 0.00 0.01 0.00 76 1028.7
20240624123024 68 105 1.0 5.0 0.00 0.01 0.00 75 1028.6
20240624122522 68 79 1.0 5.0 0.00 0.01 0.00 76 1028.6
20240624122020 68 94 0.0 2.0 0.00 0.01 0.00 78 1028.4
20240624121519 68 102 0.0 4.0 0.00 0.01 0.00 79 1028.3
20240624121018 68 91 0.0 4.0 0.00 0.01 0.00 78 1028.4
20240624120518 68 83 0.0 4.0 0.00 0.01 0.00 78 1028.3
20240624120020 68 102 0.0 4.0 0.00 0.01 0.00 78 1028.2
20240624115515 68 82 1.0 5.0 0.00 0.01 0.00 77 1028.2
20240624115019 68 110 1.0 5.0 0.00 0.01 0.00 78 1028.2
20240624114514 68 89 0.0 4.0 0.00 0.01 0.00 77 1028.1
20240624114018 68 91 0.0 6.0 0.00 0.01 0.00 77 1028.0
20240624113512 68 81 2.0 6.0 0.00 0.01 0.00 75 1028.1
20240624113012 68 118 1.0 6.0 0.00 0.01 0.00 75 1028.1
20240624112511 68 82 1.0 4.0 0.00 0.01 0.00 75 1028.0
20240624112011 68 104 0.0 8.0 0.00 0.01 0.00 77 1027.9
20240624111510 68 84 2.0 8.0 0.00 0.01 0.00 76 1027.9
20240624111011 68 86 0.0 6.0 0.00 0.01 0.00 77 1027.9
20240624110508 68 79 0.0 7.0 0.00 0.01 0.00 76 1027.8
20240624110013 69 70 0.0 7.0 0.00 0.01 0.00 76 1027.7
20240624105509 69 84 0.0 4.0 0.00 0.01 0.00 76 1027.8
20240624105109 70 92 0.0 2.0 0.00 0.01 0.00 78 1027.7
20240624104504 69 70 0.0 1.0 0.00 0.01 0.00 79 1027.6
20240624104002 69 89 0.0 5.0 0.00 0.01 0.00 81 1027.5
20240624103504 68 89 1.0 5.0 0.00 0.01 0.00 81 1027.3
20240624103001 68 93 0.0 3.0 0.00 0.01 0.00 83 1027.3
20240624102559 68 101 0.0 3.0 0.00 0.01 0.00 84 1027.4
20240624102058 68 62 0.0 3.0 0.00 0.01 0.00 85 1027.3
20240624101603 68 101 0.0 2.0 0.00 0.01 0.00 86 1027.2
20240624101057 67 82 0.0 0.0 0.00 0.01 0.00 86 1027.1
20240624100555 67 85 0.0 3.0 0.00 0.01 0.00 87 1027.0
20240624100059 67 85 0.0 4.0 0.00 0.01 0.00 87 1026.9
20240624095554 67 86 0.0 4.0 0.00 0.01 0.00 87 1026.9
20240624095052 67 89 0.0 3.0 0.00 0.01 0.00 87 1026.7
20240624094553 67 90 0.0 3.0 0.00 0.01 0.00 87 1026.6
20240624094051 67 83 0.0 3.0 0.00 0.01 0.00 87 1026.4
20240624093549 67 107 0.0 3.0 0.00 0.01 0.00 87 1026.4
20240624093048 67 83 0.0 3.0 0.00 0.01 0.00 87 1026.3
20240624092545 67 86 0.0 3.0 0.00 0.01 0.00 87 1026.2
20240624092045 67 84 0.0 3.0 0.00 0.01 0.00 88 1026.1
20240624091545 67 84 0.0 2.0 0.00 0.01 0.00 88 1026.1
20240624091043 67 79 0.0 2.0 0.00 0.01 0.00 87 1026.1
20240624090541 67 84 0.0 1.0 0.00 0.01 0.00 87 1026.1
20240624090043 67 79 0.0 3.0 0.00 0.01 0.00 87 1026.1
20240624085539 67 89 0.0 3.0 0.00 0.01 0.00 87 1026.0
20240624085041 67 77 0.0 0.0 0.00 0.01 0.00 86 1025.8
20240624084547 67 77 0.0 3.0 0.00 0.01 0.00 86 1025.7
20240624084035 67 97 0.0 3.0 0.00 0.01 0.00 86 1025.8
20240624083535 67 93 0.0 1.0 0.00 0.01 0.00 86 1025.8
20240624083033 68 91 0.0 1.0 0.00 0.01 0.00 85 1025.7
20240624082536 68 85 0.0 0.0 0.00 0.01 0.00 85 1025.9
20240624082031 68 97 0.0 2.0 0.00 0.01 0.00 85 1025.9
20240624081529 68 103 0.0 7.0 0.00 0.01 0.00 85 1025.9
20240624081028 69 83 0.0 7.0 0.00 0.01 0.00 85 1025.8
20240624080527 69 117 1.0 6.0 0.00 0.01 0.00 85 1025.8
20240624080037 69 81 0.0 5.0 0.00 0.01 0.00 86 1025.7
20240624075525 68 84 1.0 5.0 0.00 0.01 0.00 87 1025.8
20240624075024 68 80 0.0 4.0 0.00 0.01 0.00 88 1025.8
20240624074548 68 84 0.0 2.0 0.00 0.01 0.00 88 1025.8
20240624074023 68 87 0.0 2.0 0.00 0.01 0.00 88 1025.7
20240624073524 68 82 0.0 2.0 0.00 0.01 0.00 88 1025.6
20240624073020 69 90 0.0 0.0 0.00 0.01 0.00 87 1025.5
20240624072519 69 90 0.0 0.0 0.00 0.01 0.00 87 1025.5
20240624072017 69 90 0.0 3.0 0.00 0.01 0.00 87 1025.5
20240624071516 69 90 0.0 3.0 0.00 0.01 0.00 88 1025.4
20240624071015 69 90 0.0 3.0 0.00 0.01 0.00 88 1025.4
20240624070518 69 96 0.0 2.0 0.00 0.01 0.00 88 1025.3
20240624070014 70 91 0.0 4.0 0.00 0.01 0.00 89 1025.3
20240624065513 70 88 0.0 4.0 0.00 0.01 0.00 89 1025.3
20240624065015 69 96 1.0 4.0 0.00 0.01 0.00 89 1025.1
20240624064514 69 95 0.0 3.0 0.00 0.01 0.00 91 1025.1
20240624064012 69 89 0.0 0.0 0.00 0.01 0.00 91 1025.1
20240624063509 70 89 0.0 0.0 0.00 0.01 0.00 91 1025.0
20240624063009 70 89 0.0 0.0 0.00 0.01 0.00 91 1025.1
20240624062507 70 91 0.0 0.0 0.00 0.01 0.00 91 1025.1
20240624062007 70 86 0.0 1.0 0.00 0.01 0.00 91 1025.2
20240624061506 70 86 0.0 2.0 0.00 0.01 0.00 91 1025.1
20240624061007 70 89 0.0 2.0 0.00 0.01 0.00 91 1025.2
20240624060506 70 84 0.0 3.0 0.00 0.01 0.00 91 1025.2
20240624060004 70 84 1.0 3.0 0.00 0.01 0.00 91 1025.2
20240624055508 70 73 0.0 3.0 0.00 0.01 0.00 91 1025.1
20240624055003 70 69 0.0 3.0 0.00 0.01 0.00 91 1025.1
20240624054502 70 93 0.0 3.0 0.00 0.01 0.00 91 1024.9
20240624054101 70 91 0.0 1.0 0.00 0.01 0.00 91 1025.0
20240624053600 70 91 0.0 1.0 0.00 0.01 0.00 91 1024.8
20240624053126 70 91 0.0 4.0 0.00 0.01 0.00 91 1024.7
20240624052601 70 84 0.0 4.0 0.00 0.01 0.00 91 1024.7
20240624052101 70 90 0.0 3.0 0.00 0.01 0.00 92 1024.6
20240624051558 70 88 0.0 2.0 0.00 0.01 0.00 91 1024.7
20240624051056 70 79 0.0 2.0 0.00 0.01 0.00 91 1024.6
20240624050556 70 86 0.0 4.0 0.00 0.01 0.00 91 1024.6
20240624050055 70 86 0.0 4.0 0.00 0.01 0.00 91 1024.3
20240624045556 70 89 1.0 4.0 0.00 0.01 0.00 91 1024.3
20240624045053 70 90 0.0 4.0 0.00 0.01 0.00 91 1024.4
20240624044552 70 82 0.0 3.0 0.00 0.01 0.00 91 1024.4
20240624044051 70 87 0.0 2.0 0.00 0.01 0.00 91 1024.4
20240624043551 70 87 0.0 1.0 0.00 0.01 0.00 91 1024.4
20240624043049 70 88 0.0 2.0 0.00 0.01 0.00 90 1024.4
20240624042547 70 88 0.0 2.0 0.00 0.01 0.00 90 1024.5
20240624042046 70 92 0.0 2.0 0.00 0.01 0.00 90 1024.6
20240624041553 71 87 0.0 3.0 0.00 0.01 0.00 89 1024.7
20240624041042 71 96 0.0 3.0 0.00 0.01 0.00 89 1024.7
20240624040540 71 54 0.0 4.0 0.00 0.01 0.00 89 1024.6
20240624040043 71 90 0.0 4.0 0.00 0.01 0.00 89 1024.8
20240624035541 71 91 0.0 3.0 0.00 0.07 0.01 89 1024.8
20240624035037 71 84 0.0 4.0 0.00 0.07 0.01 89 1025.0
20240624034536 71 91 0.0 6.0 0.00 0.07 0.01 89 1024.9
20240624034036 71 78 0.0 6.0 0.00 0.07 0.01 89 1024.7
20240624033535 71 86 0.0 7.0 0.00 0.07 0.01 89 1024.7
20240624033034 71 89 1.0 7.0 0.00 0.07 0.01 89 1024.8
20240624032532 71 85 1.0 6.0 0.00 0.07 0.01 89 1024.8
20240624032034 72 77 0.0 6.0 0.00 0.07 0.01 89 1024.8
20240624031544 72 87 1.0 6.0 0.00 0.07 0.01 89 1024.7
20240624031031 72 100 0.0 4.0 0.00 0.07 0.01 89 1024.3
20240624030530 72 272 0.0 4.0 0.00 0.07 0.01 89 1024.1
20240624030029 72 86 0.0 0.0 0.00 0.07 0.01 89 1024.1
20240624025530 72 86 0.0 4.0 0.00 0.54 0.01 89 1024.1
20240624025028 73 78 1.0 4.0 0.00 0.54 0.01 88 1024.2
20240624024528 73 88 1.0 4.0 0.00 0.54 0.01 88 1024.3
20240624024026 73 91 0.0 4.0 0.00 0.54 0.01 88 1024.2
20240624023525 74 81 0.0 4.0 0.00 0.54 0.01 88 1024.2
20240624023025 74 89 1.0 7.0 0.00 0.54 0.01 88 1024.5
20240624022527 74 87 2.0 7.0 0.00 0.54 0.01 88 1024.9
20240624022023 74 124 1.0 7.0 0.00 0.54 0.01 88 1024.9
20240624021524 75 91 1.0 4.0 0.00 0.54 0.01 88 1024.7
20240624021023 75 87 0.0 4.0 0.00 0.54 0.01 88 1024.6
20240624020523 75 103 0.0 6.0 0.00 0.54 0.01 87 1024.6
20240624020022 75 89 1.0 6.0 0.00 0.54 0.01 87 1024.4
20240624015622 75 84 0.0 5.0 0.00 0.80 0.01 87 1024.0
20240624015021 75 89 0.0 6.0 0.00 0.80 0.01 87 1024.2
20240624014520 75 109 0.0 6.0 0.00 0.80 0.01 87 1024.1
20240624014019 75 94 0.0 3.0 0.00 0.80 0.01 87 1023.9
20240624013519 75 88 0.0 4.0 0.00 0.80 0.01 87 1024.0
20240624013023 75 84 0.0 4.0 0.00 0.80 0.01 87 1023.9
20240624012517 75 79 0.0 2.0 0.00 0.80 0.01 86 1023.6
20240624012017 75 84 0.0 2.0 0.00 0.80 0.01 86 1023.5
20240624011517 75 96 0.0 3.0 0.01 0.80 0.01 86 1023.7
20240624011016 76 101 0.0 6.0 0.01 0.80 0.01 86 1023.7
20240624010516 75 84 1.0 6.0 0.01 0.80 0.01 86 1023.9
20240624010015 75 88 0.0 3.0 0.01 0.80 0.01 86 1023.8
20240624005514 76 63 0.0 1.0 0.01 0.80 0.01 86 1023.8
20240624005014 76 96 0.0 1.0 0.01 0.80 0.01 86 1023.7
20240624004524 76 96 0.0 1.0 0.01 0.80 0.01 85 1023.7
20240624004014 77 96 0.0 1.0 0.01 0.80 0.01 85 1023.7
20240624003511 77 96 0.0 2.0 0.01 0.80 0.01 84 1023.6
20240624003010 78 96 0.0 2.0 0.01 0.80 0.01 83 1023.9
20240624002510 78 72 0.0 5.0 0.01 0.80 0.01 81 1023.8
20240624002014 79 96 1.0 5.0 0.01 0.80 0.01 79 1024.2
20240624001509 80 79 0.0 2.0 0.00 0.79 0.00 78 1023.8
20240624001008 80 88 0.0 6.0 0.00 0.79 0.00 76 1023.9
20240624000508 80 106 2.0 6.0 0.00 0.79 0.00 76 1023.8
20240624000032 80 72 1.0 3.0 0.00 0.79 0.00 76 1023.9
20240623235508 80 87 0.0 2.0 0.00 0.79 0.00 77 1023.8
20240623235007 80 87 0.0 2.0 0.00 0.79 0.00 76 1023.8
20240623234507 80 108 0.0 2.0 0.00 0.79 0.00 75 1023.8
20240623234004 80 84 0.0 0.0 0.00 0.79 0.00 77 1024.1
20240623233503 80 84 0.0 3.0 0.00 0.79 0.00 76 1023.9
20240623233011 80 84 0.0 4.0 0.00 0.79 0.00 75 1023.9
20240623232502 80 84 0.0 4.0 0.00 0.79 0.00 75 1023.8
20240623232001 80 95 0.0 2.0 0.00 0.79 0.00 77 1023.8
20240623231501 80 97 0.0 2.0 0.00 0.79 0.00 76 1023.8
20240623231101 80 87 0.0 2.0 0.00 0.79 0.00 76 1023.9
20240623230559 80 91 0.0 2.0 0.00 0.79 0.00 77 1023.8
20240623230100 81 85 0.0 7.0 0.00 0.79 0.00 75 1024.0
20240623225559 82 90 0.0 8.0 0.00 0.79 0.00 73 1024.1
20240623225059 83 106 0.0 13.0 0.00 0.79 0.00 69 1024.0
20240623224557 84 86 1.0 13.0 0.00 0.79 0.00 66 1023.9
20240623224057 84 86 1.0 12.0 0.00 0.79 0.00 65 1023.8
20240623223556 85 107 2.0 12.0 0.00 0.79 0.00 65 1023.9
20240623223139 84 119 2.0 12.0 0.00 0.79 0.00 66 1023.7
20240623222553 85 90 0.0 6.0 0.00 0.79 0.00 67 1023.7
20240623222053 85 79 1.0 6.0 0.00 0.79 0.00 65 1023.6
20240623221552 85 103 0.0 1.0 0.00 0.79 0.00 65 1023.6
20240623221051 86 109 0.0 1.0 0.00 0.79 0.00 63 1023.6
20240623220554 86 93 0.0 6.0 0.00 0.79 0.00 64 1023.5
20240623220049 86 105 0.0 7.0 0.00 0.79 0.00 63 1023.6
20240623215548 87 98 2.0 7.0 0.00 0.79 0.00 62 1023.6
20240623215048 86 83 0.0 7.0 0.00 0.79 0.00 63 1023.6
20240623214547 85 275 1.0 7.0 0.00 0.79 0.00 63 1023.8
20240623214046 85 78 1.0 7.0 0.00 0.79 0.00 64 1024.0
20240623213545 85 81 1.0 10.0 0.00 0.79 0.00 64 1024.0
20240623213044 85 91 0.0 10.0 0.00 0.79 0.00 63 1024.0
20240623212544 85 80 3.0 13.0 0.00 0.79 0.00 62 1024.2
20240623212045 86 104 4.0 13.0 0.00 0.79 0.00 60 1024.0
20240623211547 86 73 2.0 9.0 0.00 0.79 0.00 59 1023.9
20240623211045 87 102 2.0 9.0 0.00 0.79 0.00 59 1023.8
20240623210541 87 89 2.0 8.0 0.00 0.79 0.00 59 1023.8
20240623210040 87 63 2.0 8.0 0.00 0.79 0.00 58 1023.7
20240623205542 87 110 1.0 8.0 0.00 0.79 0.00 58 1023.8
20240623205039 88 131 3.0 8.0 0.00 0.79 0.00 57 1023.9
20240623204537 88 92 2.0 11.0 0.00 0.79 0.00 58 1023.9
20240623204036 87 50 3.0 11.0 0.00 0.79 0.00 57 1023.9
20240623203537 87 153 3.0 13.0 0.00 0.79 0.00 59 1024.1
20240623203034 87 78 4.0 13.0 0.00 0.79 0.00 58 1024.1
20240623202534 87 115 5.0 12.0 0.00 0.79 0.00 57 1023.9
20240623202036 87 82 2.0 11.0 0.00 0.79 0.00 59 1024.1
20240623201531 87 110 2.0 11.0 0.00 0.79 0.00 61 1024.0
20240623201030 87 75 1.0 5.0 0.00 0.79 0.00 63 1024.2
20240623200630 87 88 0.0 5.0 0.00 0.79 0.00 62 1024.2
20240623200029 88 88 0.0 7.0 0.00 0.79 0.00 62 1024.3
20240623195532 87 164 1.0 10.0 0.00 0.79 0.00 60 1024.3
20240623195028 87 14 2.0 10.0 0.00 0.79 0.00 58 1024.3
20240623194530 87 132 3.0 10.0 0.00 0.79 0.00 58 1024.2
20240623194026 88 101 3.0 9.0 0.00 0.79 0.00 60 1024.2
20240623193525 88 84 1.0 8.0 0.00 0.79 0.00 61 1024.6
20240623193024 88 68 1.0 7.0 0.00 0.79 0.00 62 1024.6
20240623192521 88 72 3.0 7.0 0.00 0.79 0.00 62 1024.6
20240623192021 88 122 1.0 9.0 0.00 0.79 0.00 62 1024.7
20240623191520 88 66 2.0 10.0 0.00 0.79 0.00 60 1024.7
20240623191017 88 96 1.0 10.0 0.00 0.79 0.00 59 1024.9
20240623190517 88 77 3.0 12.0 0.00 0.79 0.00 60 1024.9
20240623190015 88 78 3.0 12.0 0.00 0.79 0.00 59 1025.0
20240623185514 89 110 2.0 8.0 0.00 0.79 0.00 58 1025.2
20240623185014 89 88 2.0 9.0 0.00 0.79 0.00 59 1025.2
20240623184513 89 89 3.0 9.0 0.00 0.79 0.00 59 1025.2
20240623184013 89 99 1.0 11.0 0.00 0.79 0.00 59 1025.3
20240623183512 89 99 3.0 11.0 0.00 0.79 0.00 64 1025.3
20240623183009 89 79 3.0 8.0 0.00 0.79 0.00 66 1025.3
20240623182508 88 77 1.0 7.0 0.00 0.79 0.00 65 1025.4
20240623182011 88 103 2.0 9.0 0.00 0.79 0.00 65 1025.3
20240623181511 87 102 1.0 10.0 0.00 0.79 0.00 68 1025.4
20240623181004 87 76 2.0 10.0 0.00 0.79 0.00 66 1025.4
20240623180507 87 96 2.0 10.0 0.00 0.79 0.00 66 1025.5
20240623180003 87 84 3.0 10.0 0.00 0.79 0.00 66 1025.4
20240623175501 87 98 1.0 10.0 0.00 0.79 0.00 69 1025.5
20240623175001 87 84 3.0 10.0 0.00 0.79 0.00 66 1025.5
20240623174602 87 158 2.0 10.0 0.00 0.79 0.00 66 1025.7
20240623174100 87 127 1.0 10.0 0.00 0.79 0.00 68 1025.5
20240623173558 87 87 3.0 9.0 0.00 0.79 0.00 65 1025.8
20240623173057 87 99 2.0 8.0 0.00 0.79 0.00 66 1025.9
20240623172555 87 100 0.0 11.0 0.00 0.79 0.00 67 1025.9
20240623172054 87 83 1.0 11.0 0.00 0.79 0.00 67 1026.0
20240623171553 87 88 3.0 10.0 0.00 0.79 0.00 67 1026.1
20240623171054 88 110 3.0 8.0 0.00 0.79 0.00 66 1026.0
20240623170551 88 91 1.0 7.0 0.00 0.79 0.00 68 1026.1
20240623170050 88 113 0.0 5.0 0.00 0.79 0.00 68 1026.2
20240623165548 88 266 0.0 7.0 0.00 0.79 0.00 69 1026.1
20240623165047 88 98 1.0 7.0 0.00 0.79 0.00 68 1026.3
20240623164547 87 100 1.0 9.0 0.00 0.79 0.00 68 1026.2
20240623164044 87 245 3.0 9.0 0.00 0.79 0.00 66 1026.4
20240623163542 87 104 3.0 9.0 0.00 0.79 0.00 67 1026.4
20240623163042 87 84 1.0 8.0 0.00 0.79 0.00 70 1026.6
20240623162540 87 82 1.0 12.0 0.00 0.79 0.00 70 1026.7
20240623162041 87 90 3.0 12.0 0.00 0.79 0.00 68 1026.8
20240623161544 87 127 1.0 12.0 0.00 0.79 0.00 68 1026.9
20240623161038 87 88 2.0 12.0 0.00 0.79 0.00 69 1026.9
20240623160536 87 94 3.0 9.0 0.00 0.79 0.00 69 1026.9
20240623160047 87 114 1.0 8.0 0.00 0.79 0.00 70 1027.1
20240623155535 87 100 2.0 8.0 0.00 0.79 0.00 71 1027.1
20240623155032 86 67 1.0 8.0 0.00 0.79 0.00 73 1027.2
20240623154534 87 118 3.0 8.0 0.00 0.79 0.00 70 1027.3
20240623154030 86 115 0.0 7.0 0.00 0.79 0.00 73 1027.4
20240623153529 86 79 2.0 7.0 0.00 0.79 0.00 72 1027.4
20240623153026 85 92 1.0 5.0 0.00 0.79 0.00 73 1027.4
20240623152524 85 75 2.0 8.0 0.00 0.79 0.00 72 1027.4
20240623152022 85 143 1.0 8.0 0.00 0.79 0.00 72 1027.5
20240623151521 85 120 1.0 8.0 0.00 0.79 0.00 75 1027.5
20240623151020 84 89 2.0 8.0 0.00 0.79 0.00 74 1027.6
20240623150519 84 99 2.0 8.0 0.00 0.79 0.00 73 1027.5
20240623150022 84 102 2.0 8.0 0.00 0.79 0.00 73 1027.6
20240623145516 84 98 1.0 8.0 0.00 0.79 0.00 76 1027.5
20240623145021 84 91 2.0 5.0 0.00 0.79 0.00 75 1027.6
20240623144519 84 82 1.0 5.0 0.00 0.79 0.00 76 1027.6
20240623144013 84 87 1.0 5.0 0.00 0.79 0.00 76 1027.7
20240623143513 84 84 0.0 5.0 0.00 0.79 0.00 76 1027.7
20240623143015 84 86 1.0 6.0 0.00 0.79 0.00 77 1027.8
20240623142508 84 75 1.0 6.0 0.00 0.79 0.00 78 1027.9
20240623142007 84 264 0.0 6.0 0.00 0.79 0.00 78 1028.0
20240623141005 83 85 0.0 6.0 0.00 0.79 0.00 82 1028.0